Voltar ao catálogo

FENGYUN 1C DEB

AtivoSSO
NORAD 30264·DEBRIS·🇨🇳 China

Lançado May 10, 1999 de Taiyuan Satellite Launch Center

Loading…

Próximas Passagens (próximas 24 horas)

TLE

AtualizadoSource: Space-Track

Época: Sep 13, 2026, 15:16 UTC

1 30264U 99025XZ  26256.63632608  .00001160  00000-0  66669-3 0  9999
2 30264  98.9501 314.8026 0105299 236.9980 277.4056 14.08544914  4269

Acompanhe FENGYUN 1C DEB em tempo real com AllMySat

Download on the App Store